This is the latest recevied weather packets stored in our database for station/object HK4LRM-13. If no packets are shown the sender has not sent any weather packets the latest 10 day(s).
| Time | Temp. | Humidity | Pressure | Rain* | Wind** | Luminosity | Snow |
|---|---|---|---|---|---|---|---|
| 1788573665 | 19.44° C | 77% | 1016 hPa | 0 mm | - | - | - |
| 1788573124 | 19.44° C | 77% | 1016 hPa | 0 mm | - | - | - |
| 1788572584 | 20° C | 77% | 1016 hPa | 0 mm | - | - | - |
| 1788572043 | 20.56° C | 77% | 1015 hPa | 0 mm | - | - | - |
| 1788571503 | 20.56° C | 77% | 1015 hPa | 0 mm | - | - | - |
| 1788570962 | 24.44° C | 50% | 1015 hPa | 0 mm | - | - | - |
| 1788570422 | 24.44° C | 50% | 1015 hPa | 0 mm | - | - | - |
| 1788569881 | 25.56° C | 47% | 1015 hPa | 0 mm | - | - | - |
| 1788569341 | 25.56° C | 47% | 1014 hPa | 0 mm | - | - | - |
| 1788568800 | 25.56° C | 47% | 1014 hPa | 0 mm | - | - | - |
| 1788568260 | 25.56° C | 47% | 1013 hPa | 0 mm | - | - | - |
| 1788567720 | 25.56° C | 47% | 1013 hPa | 0 mm | - | - | - |
| 1788567179 | 25.56° C | 47% | 1013 hPa | 0 mm | - | - | - |
| 1788566639 | 26.67° C | 47% | 1013 hPa | 0 mm | - | - | - |
| 1788566098 | 26.67° C | 47% | 1013 hPa | 0 mm | - | - | - |
| 1788565558 | 26.67° C | 47% | 1013 hPa | 0 mm | - | - | - |
| 1788565017 | 26.67° C | 47% | 1013 hPa | 0 mm | - | - | - |
| 1788564477 | 26.67° C | 47% | 1011 hPa | 0 mm | - | - | - |
| 1788563936 | 26.67° C | 47% | 1011 hPa | 0 mm | - | - | - |
| 1788563396 | 26.67° C | 47% | 1011 hPa | 0 mm | - | - | - |
| 1788562855 | 27.78° C | 39% | 1011 hPa | 0 mm | - | - | - |
| 1788562315 | 27.78° C | 39% | 1010 hPa | 0 mm | - | - | - |
| 1788561774 | 27.22° C | 43% | 1010 hPa | 0 mm | - | - | - |
| 1788561234 | 25° C | 60% | 1008 hPa | 0 mm | - | - | - |
| 1788560694 | 25° C | 60% | 1008 hPa | 0 mm | - | - | - |
* Rain latest hour (hover to see other rain measurements)
** Current wind speed in m/s (hover to see current wind gust speed)